Date String (YYYY-MM-DD hh:mm:ss) UTC,Instrument flags,Ambient pressure (hPa),Sample flow (lpm),Bypass flow (lpm),Sample temperature (°C),Ambient temperature (°C),ASC tube jacket temperature (°C),LED temperature (°C),Box temperature (°C),Sample RH (%),Span deviation,Mass concentration (μg/m³),Mass concentration (μg/m³),Mass concentration (μg/m³)
DateTimeUTC,F1_M11,P_M11,Q1_M11,Q2_M11,T1_M11,T2_M11,T3_M11,T4_M11,T5_M11,U1_M11,ZSPAN_M11,X0_M11,X2_M11,X1_M11
2021-12-08 06:00:00,,0820.7,5.00,0.00,23.1,22.3,00.0,32.0,24.9,11.2,0000.0,0020.01,0005.14,0002.89
2021-12-08 06:01:00,,0820.8,4.99,0.00,23.1,22.3,00.0,32.0,24.9,11.2,0000.0,0019.56,0005.15,0002.86
2021-12-08 06:02:00,,0820.8,5.00,0.00,23.1,22.3,00.0,32.0,24.9,11.2,0000.0,0019.38,0005.15,0002.82
2021-12-08 06:03:00,,0820.8,5.01,0.00,23.1,22.4,00.0,32.0,24.9,11.2,0000.0,0018.06,0005.12,0002.76
2021-12-08 06:04:00,,0820.8,4.99,0.00,23.1,22.4,00.0,32.0,24.9,11.2,0000.0,0017.32,0005.03,0002.71
2021-12-08 06:05:00,,0820.8,5.00,0.00,23.1,22.4,00.0,32.0,24.9,11.2,0000.0,0016.10,0004.83,0002.66
2021-12-08 06:06:00,,0820.8,5.01,0.00,23.1,22.4,00.0,32.0,24.9,11.2,0000.0,0016.12,0004.74,0002.63
2021-12-08 06:07:00,,0820.7,4.99,0.00,23.1,22.4,00.0,32.0,24.9,11.1,0000.0,0016.27,0004.63,0002.58
2021-12-08 06:08:00,,0820.6,5.00,0.00,23.1,22.4,00.0,32.0,24.9,11.1,0000.0,0016.19,0004.54,0002.55
2021-12-08 06:09:00,,0820.7,5.00,0.00,23.1,22.4,00.0,32.0,24.9,11.1,0000.0,0015.74,0004.48,0002.50
2021-12-08 06:10:00,,0820.7,4.99,0.00,23.1,22.4,00.0,32.0,24.9,11.1,0000.0,0014.59,0004.41,0002.44
2021-12-08 06:11:00,,0820.7,5.00,0.00,23.1,22.4,00.0,32.0,24.9,11.0,0000.0,0014.85,0004.28,0002.36
2021-12-08 06:12:00,,0820.7,5.00,0.00,23.1,22.4,00.0,32.0,24.9,11.0,0000.0,0016.35,0004.14,0002.28
2021-12-08 06:13:00,,0820.7,5.00,0.00,23.1,22.4,00.0,32.1,24.9,10.9,0000.0,0016.03,0004.01,0002.22
2021-12-08 06:14:00,,0820.7,4.99,0.00,23.1,22.4,00.0,32.1,24.9,10.9,0000.0,0016.33,0003.88,0002.15
2021-12-08 06:15:00,,0820.7,5.00,0.00,23.1,22.4,00.0,32.1,24.9,10.9,0000.0,0016.47,0003.81,0002.10
2021-12-08 06:16:00,,0820.8,5.01,0.00,23.1,22.3,00.0,32.1,24.9,10.9,0000.0,0016.26,0003.80,0002.04
2021-12-08 06:17:00,,0820.8,4.99,0.00,23.1,22.3,00.0,32.1,24.9,10.9,0000.0,0016.25,0003.77,0001.97
2021-12-08 06:18:00,,0820.8,5.00,0.00,23.1,22.4,00.0,32.1,24.9,10.9,0000.0,0015.73,0003.68,0001.91
2021-12-08 06:19:00,,0820.8,5.01,0.00,23.1,22.4,00.0,32.1,24.9,10.9,0000.0,0015.16,0003.67,0001.84
2021-12-08 06:20:00,,0820.8,4.99,0.00,23.1,22.4,00.0,32.1,24.9,10.9,0000.0,0014.82,0003.62,0001.78
2021-12-08 06:21:00,,0820.7,4.99,0.00,23.1,22.4,00.0,32.1,24.9,10.9,0000.0,0014.81,0003.58,0001.71
2021-12-08 06:22:00,,0820.7,5.01,0.00,23.1,22.4,00.0,32.1,24.9,10.8,0000.0,0014.16,0003.59,0001.69
2021-12-08 06:23:00,,0820.7,5.00,0.00,23.1,22.4,00.0,32.1,24.9,10.8,0000.0,0013.57,0003.57,0001.65
2021-12-08 06:24:00,,0820.7,5.00,0.00,23.1,22.4,00.0,32.1,24.9,10.9,0000.0,0014.33,0003.53,0001.62
2021-12-08 06:25:00,,0820.7,5.01,0.00,23.1,22.4,00.0,32.1,24.9,10.9,0000.0,0014.92,0003.50,0001.60
2021-12-08 06:26:00,,0820.7,4.99,0.00,23.1,22.3,00.0,32.1,24.9,10.9,0000.0,0014.27,0003.48,0001.57
2021-12-08 06:27:00,,0820.6,5.00,0.00,23.1,22.3,00.0,32.1,24.9,10.9,0000.0,0014.14,0003.46,0001.56
2021-12-08 06:28:00,,0820.7,5.00,0.00,23.1,22.3,00.0,32.1,24.9,10.9,0000.0,0013.59,0003.46,0001.56
2021-12-08 06:29:00,,0820.7,4.99,0.00,23.1,22.3,00.0,32.1,24.9,10.9,0000.0,0013.69,0003.54,0001.58
2021-12-08 06:30:00,,0820.7,5.01,0.00,23.1,22.3,00.0,32.1,24.9,10.9,0000.0,0014.29,0003.59,0001.62
2021-12-08 06:31:00,,0820.7,5.00,0.00,23.1,22.3,00.0,32.1,24.9,10.9,0000.0,0014.56,0003.62,0001.66
2021-12-08 06:32:00,,0820.8,4.99,0.00,23.1,22.3,00.0,32.1,24.9,10.9,0000.0,0014.87,0003.64,0001.72
2021-12-08 06:33:00,,0820.8,5.01,0.00,23.1,22.3,00.0,32.1,24.9,11.0,0000.0,0015.15,0003.70,0001.79
2021-12-08 06:34:00,,0820.8,5.00,0.00,23.1,22.3,00.0,32.0,24.9,10.9,0000.0,0015.00,0003.77,0001.85
2021-12-08 06:35:00,,0820.8,5.00,0.00,23.1,22.3,00.0,32.0,24.9,11.0,0000.0,0014.56,0003.93,0001.94
2021-12-08 06:36:00,,0820.9,5.02,0.00,23.1,22.3,00.0,32.1,24.9,11.0,0000.0,0014.04,0004.13,0002.03
2021-12-08 06:37:00,,0820.9,5.00,0.00,23.1,22.3,00.0,32.1,24.9,11.0,0000.0,0014.23,0004.28,0002.13
2021-12-08 06:38:00,,0820.9,5.00,0.00,23.1,22.3,00.0,32.0,24.9,11.0,0000.0,0014.86,0004.45,0002.22
2021-12-08 06:39:00,,0820.9,5.01,0.00,23.1,22.3,00.0,32.1,24.9,11.1,0000.0,0016.47,0004.64,0002.31
2021-12-08 06:40:00,,0820.8,5.00,0.00,23.1,22.3,00.0,32.1,24.9,11.1,0000.0,0017.17,0004.72,0002.40
2021-12-08 06:41:00,,0820.8,4.99,0.00,23.1,22.3,00.0,32.1,24.9,11.2,0000.0,0017.37,0004.81,0002.49
2021-12-08 06:42:00,,0820.8,5.00,0.00,23.1,22.3,00.0,32.1,24.9,11.2,0000.0,0018.72,0004.95,0002.59
2021-12-08 06:43:00,,0820.7,5.01,0.00,23.1,22.3,00.0,32.1,24.9,11.1,0000.0,0019.57,0005.12,0002.67
2021-12-08 06:44:00,,0820.7,5.00,0.00,23.1,22.3,00.0,32.1,24.9,11.1,0000.0,0020.57,0005.24,0002.73
2021-12-08 06:45:00,,0820.7,4.99,0.00,23.1,22.3,00.0,32.1,24.9,11.1,0000.0,0020.62,0005.39,0002.80
2021-12-08 06:46:00,,0820.7,5.00,0.00,23.1,22.3,00.0,32.1,24.9,11.1,0000.0,0020.19,0005.39,0002.85
2021-12-08 06:47:00,,0820.7,5.00,0.00,23.1,22.3,00.0,32.1,24.9,11.2,0000.0,0020.10,0005.37,0002.89
2021-12-08 06:48:00,,0820.6,5.01,0.00,23.1,22.3,00.0,32.1,24.9,11.2,0000.0,0020.44,0005.44,0002.94
2021-12-08 06:49:00,,0820.6,4.98,0.00,23.1,22.3,00.0,32.1,24.9,11.2,0000.0,0021.05,0005.49,0002.99
2021-12-08 06:50:00,,0820.6,5.01,0.00,23.1,22.3,00.0,32.1,24.9,11.3,0000.0,0020.90,0005.48,0003.03
2021-12-08 06:51:00,,0820.6,4.99,0.00,23.1,22.3,00.0,32.1,24.9,11.2,0000.0,0020.93,0005.47,0003.05
2021-12-08 06:52:00,,0820.6,5.00,0.00,23.1,22.3,00.0,32.1,24.9,11.3,0000.0,0021.51,0005.52,0003.04
2021-12-08 06:53:00,,0820.6,5.01,0.00,23.1,22.3,00.0,32.1,24.9,11.4,0000.0,0022.34,0005.57,0003.00
2021-12-08 06:54:00,,0820.6,4.99,0.00,23.1,22.3,00.0,32.1,24.9,11.4,0000.0,0021.99,0005.57,0003.00
2021-12-08 06:55:00,,0820.6,5.01,0.00,23.1,22.3,00.0,32.0,24.9,11.3,0000.0,0021.42,0005.54,0003.01
2021-12-08 06:56:00,,0820.6,5.00,0.00,23.1,22.3,00.0,32.0,24.9,11.2,0000.0,0022.74,0005.52,0003.00
2021-12-08 06:57:00,,0820.6,4.98,0.00,23.1,22.3,00.0,32.0,24.9,11.2,0000.0,0023.55,0005.51,0003.00
2021-12-08 06:58:00,,0820.6,5.01,0.00,23.1,22.3,00.0,32.0,24.9,11.2,0000.0,0024.16,0005.46,0003.00
2021-12-08 06:59:00,,0820.6,4.99,0.00,23.1,22.3,00.0,32.0,24.9,11.2,0000.0,0024.17,0005.38,0002.98
